Theta_e
324 321 323 321 308 306 302 303 311 309 310 316 317 313 312 312 308 308 335 337 335 338 343 347 347 345 343 345 344 346 348 347 345 343 340 342 342 340 340 342 342 340 339 339 341 342 342 341 341
320 319 321 316 304 299 300 307 306 311 315 317 318 315 310 312 323 328 332 337 337 339 341 345 344 345 343 343 344 346 347 346 345 344 341 340 341 339 339 342 342 339 338 338 338 338 338 339 339
320 318 315 309 305 300 300 305 310 312 315 316 314 316 313 314 326 330 336 336 337 338 342 345 344 346 343 343 343 343 346 346 345 343 341 339 339 339 338 339 341 338 338 337 337 336 336 336 337
316 315 315 304 301 305 303 306 312 311 311 313 313 310 317 325 329 334 337 336 338 340 343 342 345 346 343 343 343 343 344 344 345 344 343 339 338 338 337 337 339 339 336 336 336 336 335 335 336
317 314 305 302 303 304 305 309 312 310 310 311 312 308 314 326 335 337 336 337 338 339 345 345 345 345 345 343 342 343 343 344 343 345 342 340 338 338 336 337 338 338 336 335 335 335 336 336 336
308 311 302 300 302 303 305 309 311 310 310 310 309 308 316 331 334 335 336 337 338 339 345 345 339 341 343 343 344 343 343 343 343 345 342 340 338 337 337 335 338 339 336 335 335 334 336 336 336
308 305 302 303 302 301 304 310 309 309 307 307 312 306 317 327 335 337 337 337 338 340 343 341 344 340 337 340 340 342 342 343 343 344 343 341 339 338 338 336 336 338 335 335 334 334 335 335 335
310 308 303 304 301 300 306 308 310 308 306 311 313 306 309 324 336 338 337 336 337 340 342 341 342 342 340 341 334 336 338 339 340 341 337 334 334 333 333 333 335 336 335 334 335 333 333 333 332
311 303 301 302 302 302 307 305 308 309 307 309 312 310 317 331 335 335 334 334 335 337 340 342 341 342 339 339 335 332 333 334 334 334 330 329 336 334 330 330 333 336 335 333 333 332 331 329 328
306 303 304 307 306 304 306 306 306 305 306 306 309 315 324 331 332 332 333 332 332 334 337 341 340 340 341 338 338 337 337 337 338 340 339 339 336 334 331 328 328 331 332 332 330 328 327 327 329
306 303 306 305 306 307 306 306 308 305 304 307 307 311 323 328 328 329 331 333 334 335 336 339 338 340 341 338 338 337 337 337 336 338 339 338 336 334 331 330 329 330 326 328 326 323 324 324 325
302 303 305 304 304 305 305 307 305 306 306 309 311 313 321 325 326 327 327 330 335 336 336 338 339 338 340 340 339 337 338 337 336 336 338 336 335 334 332 329 329 330 329 328 326 325 324 324 324
302 301 302 304 303 305 305 304 305 305 309 308 309 311 317 322 325 327 329 330 333 335 337 337 339 337 338 338 338 337 336 337 336 336 336 335 334 333 332 330 328 328 328 326 324 324 323 323 323
303 302 301 301 302 302 303 303 302 306 307 307 307 309 313 318 322 325 327 328 331 334 336 338 338 338 336 337 338 337 337 337 337 336 335 335 333 333 331 329 327 326 325 324 323 322 322 323 324
302 298 300 300 301 300 302 299 300 306 304 303 304 306 309 312 318 323 327 328 330 333 335 337 337 336 335 337 337 337 337 336 335 335 335 334 333 332 331 329 327 326 325 323 322 322 322 322 322
299 300 295 299 300 301 300 297 304 304 303 303 304 305 306 309 313 320 325 328 331 332 333 336 337 336 335 335 337 336 337 336 336 334 334 334 333 332 330 329 327 327 325 321 320 320 319 320 320
296 291 294 294 300 299 299 298 302 302 302 302 304 305 305 306 309 314 320 325 328 331 333 334 336 335 334 334 336 336 336 336 335 334 332 333 333 332 330 329 328 327 324 321 320 319 319 319 319
291 293 293 294 297 298 297 297 300 302 302 303 304 305 305 305 307 309 310 314 323 327 331 333 336 336 334 335 335 335 335 335 336 335 331 330 330 330 330 330 329 327 323 321 320 318 319 317 316
297 294 293 296 296 296 296 297 299 302 302 302 304 305 306 306 309 310 310 310 311 314 323 328 331 335 333 333 332 332 331 333 334 335 333 330 328 327 327 328 328 328 323 319 317 315 311 310 312
296 294 293 294 296 296 296 296 299 301 301 303 303 305 306 307 308 307 307 308 309 309 311 319 325 330 335 332 333 333 333 333 334 335 334 330 327 326 325 325 325 326 323 320 316 311 308 307 310
294 293 293 293 294 295 294 293 296 300 302 303 303 305 306 305 305 306 305 307 309 308 309 309 312 321 328 334 332 332 332 332 331 331 332 331 328 326 324 324 323 322 320 317 314 312 310 311 307
289 294 294 292 292 288 293 287 296 298 298 298 300 301 302 303 304 304 306 308 309 310 310 309 309 312 319 329 333 330 328 326 329 331 332 331 330 326 324 323 324 321 321 317 317 315 313 309 306
292 295 293 293 292 291 290 288 293 294 294 297 299 302 303 304 305 305 305 306 307 310 313 315 307 311 316 323 330 332 325 330 330 329 330 330 329 328 326 325 324 323 324 322 319 313 311 311 310
295 293 293 293 291 284 289 289 290 293 294 296 299 302 303 303 304 305 305 307 308 311 314 318 310 307 314 320 325 328 328 327 327 328 328 328 328 327 326 325 325 326 324 320 317 315 312 311 310
294 291 285 283 284 283 287 286 291 296 295 298 298 302 303 303 304 305 305 306 307 308 310 314 317 315 312 314 320 324 326 326 322 324 324 326 325 323 325 326 323 323 321 319 317 314 312 309 308
292 292 287 281 281 285 285 283 290 296 298 297 297 302 303 303 303 304 304 306 306 307 308 310 314 317 317 318 319 322 324 324 321 321 321 323 321 321 320 318 318 318 318 318 316 314 313 311 309
290 287 292 285 281 285 288 291 295 295 295 297 298 300 302 302 303 303 303 305 306 306 307 308 309 313 316 315 316 316 317 317 317 316 316 317 316 313 317 319 318 317 315 314 314 313 311 310 309
292 294 286 287 283 281 285 287 289 292 293 296 297 299 300 301 301 301 302 303 304 305 306 307 307 307 309 311 311 311 313 314 315 316 314 314 313 312 312 312 313 313 314 314 314 312 311 310 309
289 288 289 290 289 286 283 286 294 295 297 296 299 300 300 300 300 300 301 302 302 303 303 304 305 305 305 306 307 306 306 307 307 306 306 306 307 306 306 306 307 307 308 309 309 310 308 306 306
292 291 290 286 284 286 285 287 294 295 298 300 300 300 300 300 300 300 300 301 300 300 300 300 301 300 301 301 301 301 301 301 301 300 300 301 301 302 301 301 302 302 303 304 304 304 305 304 302
Wind_Speed
9 7 5 6 6 5 4 6 3 7 6 6 6 3 9 7 9 6 11 7 17 15 15 13 11 11 10 9 8 10 12 14 14 14 14 13 14 15 12 13 15 16 16 16 16 16 16 15 16
6 5 4 3 6 6 7 8 7 8 8 5 4 3 2 9 8 10 12 9 17 14 14 14 11 12 10 9 8 8 10 12 13 14 14 12 13 14 12 14 15 14 16 16 16 16 15 15 14
7 5 6 4 7 6 7 9 9 7 7 6 4 2 4 6 6 14 12 16 16 14 13 15 11 12 11 9 8 7 8 10 13 13 13 13 12 13 12 13 13 16 15 15 15 15 15 15 14
5 5 4 8 10 1 4 8 9 10 4 2 1 6 5 5 9 6 14 17 15 14 12 15 13 12 11 10 9 8 9 9 9 13 14 13 11 12 12 10 9 13 14 14 14 14 13 14 14
5 4 8 10 6 3 2 6 10 11 9 8 4 6 5 6 7 10 15 15 14 13 14 14 11 11 11 10 9 8 7 8 6 13 14 13 11 11 11 10 10 11 13 13 13 13 13 13 13
7 6 8 11 9 4 3 6 10 11 8 7 5 3 7 8 10 13 14 15 14 13 14 14 11 10 10 9 8 8 7 8 7 12 14 13 11 10 11 9 9 13 12 12 12 11 12 12 13
12 9 11 10 8 7 6 8 11 9 8 7 3 5 6 9 11 13 13 14 13 13 13 11 12 10 8 8 8 8 7 8 6 8 12 11 10 8 9 8 7 11 11 11 11 11 12 11 13
6 7 9 8 11 7 8 10 4 7 6 5 0 5 7 10 12 12 13 13 13 13 13 10 10 11 10 9 7 7 7 7 6 7 10 9 9 8 7 8 5 9 11 10 11 11 11 11 11
4 6 10 10 10 8 10 9 4 1 5 4 5 4 4 15 13 12 12 13 12 11 12 10 9 10 9 10 8 7 6 6 7 8 9 9 6 7 8 9 7 9 9 10 10 9 9 10 8
7 9 12 6 8 10 13 11 10 8 8 6 7 7 7 14 13 14 14 14 15 15 13 12 9 9 7 7 11 9 8 7 7 8 9 5 4 5 7 8 7 7 9 10 8 6 5 7 5
6 10 7 6 5 3 13 8 5 6 8 6 10 12 12 14 14 14 13 13 13 14 12 13 9 8 7 7 7 5 6 6 6 9 8 5 4 4 5 5 5 6 6 5 6 5 4 1 0
8 1 1 6 4 5 11 8 6 8 7 7 4 9 14 15 15 15 14 14 15 14 14 13 13 9 8 4 5 6 6 6 6 7 8 6 4 5 4 4 5 4 5 4 4 2 2 2 0
3 6 3 6 6 5 6 7 1 8 6 6 5 5 12 13 14 13 12 12 13 15 14 14 14 13 9 7 5 5 6 7 7 7 8 7 6 5 5 5 5 5 4 4 4 4 4 3 3
4 7 8 5 6 3 6 5 3 5 2 6 6 8 10 13 14 13 13 14 14 14 15 15 14 12 11 9 9 6 4 6 7 7 8 9 6 6 6 5 5 5 5 5 4 4 4 4 3
10 8 6 6 4 2 4 6 11 6 5 4 7 10 9 10 12 14 14 13 14 13 13 14 14 13 11 10 8 7 6 6 4 6 9 10 8 8 7 6 6 5 5 6 5 4 4 4 4
8 7 8 7 6 2 2 11 12 2 6 10 9 7 10 12 12 12 13 13 13 13 14 14 11 13 12 11 8 7 6 7 6 5 6 9 9 8 8 6 6 6 5 6 5 6 5 5 5
8 10 14 6 6 4 8 9 6 2 4 7 9 11 9 10 12 12 12 13 13 14 14 14 15 15 13 12 8 8 8 6 6 6 5 7 9 9 8 6 6 6 5 6 5 5 6 5 4
12 13 5 10 8 8 9 13 5 6 5 7 7 9 10 11 11 11 11 11 12 13 13 14 13 15 13 8 8 7 7 7 6 7 7 8 6 8 8 6 7 6 6 6 5 6 4 3 4
14 14 11 8 3 6 13 15 14 12 9 9 10 10 10 11 10 5 4 6 9 11 13 15 15 15 10 9 8 8 8 7 7 6 9 9 8 9 8 6 8 7 6 5 5 2 3 4 3
10 15 9 5 3 4 6 13 13 14 15 13 14 13 13 12 9 9 5 5 8 11 11 13 15 15 14 9 8 7 6 6 7 7 8 10 10 10 9 8 6 7 6 8 6 5 3 3 6
6 12 10 1 5 2 7 11 16 14 15 12 10 10 9 6 9 6 5 6 5 7 8 10 13 14 14 14 7 5 2 3 5 6 7 9 10 10 10 10 8 6 4 5 7 8 9 7 5
7 3 7 9 7 6 3 5 4 8 11 10 11 12 11 6 4 3 3 2 1 3 4 6 9 13 12 13 11 13 9 9 9 8 7 7 10 9 9 9 10 9 7 8 8 8 8 4 6
3 6 7 5 3 4 6 6 5 2 9 11 10 6 5 3 3 4 4 2 2 2 2 3 5 8 11 11 12 9 11 8 8 7 7 8 8 10 10 9 10 10 8 8 8 6 8 8 7
14 10 8 4 2 6 10 8 6 7 3 4 8 7 6 6 5 5 4 3 4 4 3 2 4 6 8 10 11 11 11 10 6 7 6 6 5 6 8 9 9 8 6 7 7 8 8 8 6
7 14 4 5 5 6 3 3 12 2 3 4 8 7 7 7 6 5 4 4 4 5 5 4 4 4 5 7 9 10 10 9 8 4 2 3 4 3 6 7 5 5 6 6 6 6 7 7 8
13 15 5 7 6 3 3 9 6 2 4 5 4 4 7 8 6 5 3 4 4 5 5 5 5 6 5 3 2 0 2 3 3 4 3 3 2 2 2 2 2 3 4 5 5 5 6 7 7
7 7 3 6 2 0 7 7 8 8 6 6 8 8 7 7 5 5 4 4 5 5 6 6 6 6 7 6 5 5 5 5 4 4 3 2 2 2 1 3 2 2 1 2 2 3 4 6 6
5 10 4 3 4 5 6 7 9 6 11 10 10 10 8 6 6 5 5 5 5 5 6 7 8 8 8 8 6 5 5 5 5 4 5 5 4 4 4 3 2 2 3 4 5 3 3 5 5
5 6 5 4 3 4 3 5 4 4 10 13 12 11 10 8 7 6 6 5 5 6 7 8 8 9 9 8 8 8 8 8 8 7 7 6 6 6 6 5 5 5 5 5 5 5 6 9 9
5 11 12 6 6 6 2 7 2 4 1 11 11 10 8 8 7 7 8 7 6 6 7 8 9 9 9 8 8 9 8 8 8 8 8 7 6 6 6 6 5 5 6 6 6 6 6 7 9
Wind_Direction
278 271 283 256 246 250 126 158 93 136 152 77 95 4 18 11 8 46 141 134 137 136 130 139 126 123 121 118 108 95 103 105 102 96 89 88 87 83 84 88 85 82 81 79 78 71 70 72 72
298 283 240 280 261 213 150 132 173 158 92 126 128 202 213 86 60 117 139 160 145 139 144 136 126 124 126 124 115 104 109 115 110 103 99 92 92 88 76 79 85 82 83 79 79 79 79 76 74
262 260 249 230 254 237 142 169 160 115 131 178 150 310 33 72 89 142 114 152 143 141 148 122 129 130 134 130 120 110 109 109 121 113 104 98 97 93 82 73 83 80 80 82 83 80 77 77 72
221 198 231 247 197 67 6 170 138 147 148 222 337 140 107 42 129 104 142 148 148 144 140 133 133 137 138 135 128 118 114 117 127 123 111 107 102 100 92 84 88 89 81 81 81 81 79 78 74
225 231 217 228 223 93 156 146 158 178 161 162 202 112 89 113 110 141 151 154 149 147 131 144 136 140 141 140 137 132 128 127 124 130 115 114 112 110 101 87 80 95 91 86 84 84 83 79 74
209 226 216 212 199 141 151 170 184 186 158 118 197 145 98 117 143 149 159 161 152 149 141 138 139 138 141 143 139 136 132 126 120 132 126 122 117 115 109 99 90 100 95 90 90 91 85 83 84
247 200 214 208 168 171 158 176 198 186 170 173 28 187 94 152 140 153 165 164 160 149 153 153 157 149 138 142 137 132 125 124 121 134 129 123 119 109 102 102 100 108 103 95 95 95 88 81 80
281 215 216 207 179 175 146 176 234 186 156 82 271 165 162 147 147 156 165 166 168 159 150 171 156 163 159 156 139 136 134 133 124 124 119 112 109 109 104 112 88 99 106 102 97 99 99 84 81
264 225 199 190 195 137 155 175 189 93 152 180 150 22 51 123 151 160 165 171 174 170 175 161 155 177 167 161 152 140 124 110 111 118 124 146 139 149 162 85 90 97 109 105 96 99 101 99 86
230 220 206 173 181 154 170 201 170 189 168 176 167 116 142 149 164 171 180 180 184 182 186 155 174 175 165 170 157 169 159 168 175 158 170 198 157 102 103 106 95 96 105 99 96 109 146 207 151
183 216 111 157 123 157 168 185 184 208 189 185 194 166 160 168 181 185 194 196 196 189 186 162 185 185 174 183 169 173 168 177 175 173 193 172 153 151 158 138 151 144 179 153 164 168 206 72 277
196 290 123 135 132 151 170 154 199 212 74 48 121 155 165 184 191 196 198 201 192 201 198 179 186 185 190 191 186 182 181 182 181 187 182 176 184 177 168 168 168 169 195 145 169 166 135 162 205
230 132 85 119 133 161 136 178 205 222 184 119 109 169 180 195 204 200 200 205 192 203 197 199 192 191 189 187 190 193 205 191 191 182 186 194 192 183 179 171 174 183 178 178 181 171 185 188 199
130 148 125 133 134 127 195 173 227 189 148 203 195 193 201 209 206 202 201 200 198 203 205 197 202 189 199 194 190 196 196 207 200 192 191 203 198 188 187 177 186 184 184 181 188 185 193 202 199
148 129 148 162 150 91 296 216 226 177 144 188 218 228 212 216 220 212 204 208 203 204 202 204 199 206 197 198 196 197 197 209 204 211 199 200 206 197 197 189 190 192 187 182 188 194 210 215 215
179 163 184 152 174 136 215 246 209 116 232 229 230 215 212 221 224 222 217 210 211 209 205 200 193 203 207 204 199 200 199 192 198 200 216 207 209 212 203 202 203 191 185 194 200 199 209 224 224
203 196 209 156 205 155 208 255 126 181 227 245 236 226 213 230 221 222 220 221 214 214 213 207 200 201 206 209 197 202 202 205 197 190 198 205 209 215 217 217 213 190 204 201 210 214 217 219 228
185 213 204 206 179 218 206 244 187 197 218 249 241 222 215 222 222 216 215 227 224 223 218 216 207 206 202 199 204 201 201 205 206 196 192 194 199 205 216 223 219 189 211 216 210 226 224 294 254
197 202 201 186 124 219 232 249 246 239 212 242 242 230 215 213 214 203 223 247 229 233 228 223 216 210 200 196 198 196 202 199 205 206 195 188 194 198 206 221 222 205 215 218 208 180 202 230 253
180 193 185 127 132 211 229 259 255 248 242 231 237 236 224 212 202 209 226 233 238 238 227 235 227 220 196 207 203 206 194 208 211 205 202 193 192 195 200 206 220 222 212 218 201 183 189 224 195
193 194 166 190 154 233 282 264 245 236 245 237 236 254 260 254 246 245 217 235 249 240 233 230 233 230 223 190 195 193 193 180 198 212 204 199 194 194 194 201 206 214 203 207 207 200 207 233 196
185 93 136 134 178 229 267 264 172 225 224 211 227 218 225 216 203 203 190 198 189 275 278 256 246 235 230 216 202 184 207 216 218 213 202 197 194 194 196 203 210 208 208 216 215 213 215 173 211
145 113 113 135 195 292 181 263 234 143 249 221 193 169 171 164 177 149 114 84 49 18 311 259 237 232 220 219 209 203 212 228 226 209 188 190 191 195 199 205 209 213 218 219 216 193 206 208 226
138 123 95 114 190 246 230 225 250 205 226 118 143 165 158 156 143 125 102 80 63 56 36 60 166 204 222 213 215 223 210 226 230 233 170 183 184 194 202 207 216 224 216 217 216 218 213 216 216
196 163 142 193 200 246 54 212 249 175 154 223 161 156 147 154 150 125 106 90 61 50 50 37 84 111 180 208 217 216 226 212 233 258 278 180 156 168 205 206 202 211 211 211 204 205 208 202 214
195 192 177 191 194 183 88 231 244 25 61 166 158 146 147 148 145 120 102 92 77 67 66 65 69 90 76 97 165 182 23 35 59 53 46 58 61 116 105 161 191 216 206 206 201 212 211 211 216
167 203 65 109 45 88 200 245 271 176 176 197 177 178 166 148 140 125 111 90 80 72 62 74 83 79 98 96 96 83 76 75 85 79 77 88 103 78 179 158 164 203 231 243 238 219 213 208 220
220 144 151 234 177 224 223 259 245 205 217 190 182 186 165 145 149 135 117 101 85 78 79 75 75 74 75 81 77 88 97 103 112 105 84 74 63 55 46 38 15 332 285 268 270 267 254 243 235
159 181 215 247 201 207 243 229 31 290 186 189 186 172 164 160 155 144 123 109 97 88 84 81 77 80 76 71 73 73 69 71 69 70 60 50 48 31 33 24 8 352 339 326 310 291 290 292 289
287 212 186 188 200 241 34 263 91 50 154 176 169 157 148 149 146 140 134 124 107 95 89 86 80 76 70 67 67 67 65 59 65 63 53 41 42 38 30 24 16 4 349 343 331 317 310 296 293